#timestamp,LO_Frequency,Hit,StdDev 
1636714815.2,286047001.2,N
1636714835.0,286046998.5,N
1636714835.9,286046998.5,N
1636714855.8,286046999.4,N
1636714875.6,286046998.4,N
1636714895.4,286046998.3,N
1636714915.3,286046999.3,N
1636714935.1,286046998.8,N
1636714955.9,286046998.8,N
1636714975.7,286046999.5,N
1636714995.5,286046996.6,N
1636715015.4,286046997.1,N
1636715035.2,286046997.7,N
1636715055.1,286046997.1,N
1636715056.0,286046997.1,N
1636715075.8,286046998.8,N
1636715095.6,286046999.4,N
1636715115.5,286046999.2,N
1636715135.3,286046999.3,N
1636715155.1,286046999.0,N
1636715175.9,286046998.1,N
1636715195.7,286046998.5,N
1636715215.6,286046999.1,N
1636715235.4,286046999.0,N
1636715255.2,286046998.3,N
1636715275.1,286046998.6,N
1636715276.0,286046998.6,N
1636715295.8,286047001.1,N
1636715315.7,286047001.2,N
1636715335.5,286046998.2,N
1636715355.3,286047001.1,N
1636715375.2,286047000.7,N
1636715395.0,286046999.8,N
1636715395.9,286046999.8,N
1636715415.7,286047001.1,N
1636715435.6,286046998.6,N
1636715455.4,286046998.7,N
1636715475.3,286046999.0,N
1636715495.1,286046996.9,N
1636715496.0,286046996.9,N
1636715515.8,286046999.5,N
1636715535.7,286046998.7,N
1636715555.5,286046997.0,N
1636715575.3,286046996.6,N
1636715595.2,286046998.3,N
1636715615.0,286047001.2,N
1636715615.9,286047001.2,N
1636715635.8,286046998.3,N
1636715655.6,286046998.5,N
1636715675.4,286046998.1,N
1636715695.3,286046998.5,N
1636715715.1,286047001.2,N
1636715735.8,286046998.6,N
1636715755.7,286046998.6,N
1636715775.5,286047001.1,N
1636715795.4,286047000.3,N
1636715815.2,286047002.3,N
1636715835.0,286047002.2,N
1636715835.9,286047002.2,N
1636715855.8,286047002.6,N
1636715875.6,286047001.6,N
1636715895.5,286047002.3,N
1636715915.3,286047003.9,N
1636715935.1,286047001.7,N
1636715955.9,286047002.3,N
1636715975.7,286047002.1,N
1636715995.6,286047004.4,N
1636716015.4,286047004.2,N
1636716035.2,286047001.5,N
1636716055.1,286047001.8,N
1636716056.0,286047001.8,N
1636716075.8,286047002.1,N
1636716095.6,286047001.6,N
1636716115.5,286047002.5,N
1636716135.3,286046999.7,N
1636716155.2,286047002.1,N
1636716175.9,286047002.3,N
1636716195.7,286047002.0,N
1636716215.6,286047001.4,N
1636716235.4,286047001.3,N
1636716255.2,286047001.4,N
1636716275.1,286047001.3,N
1636716276.0,286047001.3,N
1636716295.8,286047001.3,N
1636716315.7,286047002.2,N
1636716335.5,286047002.1,N
1636716355.3,286047002.6,N
1636716375.2,286047001.6,N
1636716395.0,286047002.1,N
1636716395.9,286047002.1,N
1636716415.8,286047002.3,N
1636716435.6,286047000.1,N
1636716455.4,286047002.4,N
1636716475.3,286047001.7,N
1636716495.1,286047001.7,N
1636716515.8,286047002.0,N
1636716535.7,286047002.2,N
1636716555.5,286047003.9,Y
1636716575.4,286047000.5,P
1636716595.2,286047000.5,N
1636716615.0,286047000.0,N
1636716615.9,286047000.0,N
1636716635.8,286047000.7,N
1636716655.6,286047000.7,N
1636716675.5,286047001.2,N
1636716695.3,286047000.3,N
1636716715.1,286046998.5,N
1636716735.9,286047001.0,N
1636716755.7,286046998.1,N
1636716775.5,286046998.1,N
1636716795.4,286046998.3,N
1636716815.2,286046998.3,N
1636716835.0,286046998.7,N
1636716836.0,286046998.7,N
1636716855.8,286046998.5,N
1636716875.6,286047001.2,N
1636716895.5,286047001.1,N
1636716915.3,286046998.5,N
1636716935.1,286046998.4,N
1636716955.9,286047000.7,N
1636716975.7,286047000.5,N
1636716995.6,286046999.8,N
1636717015.4,286046999.7,N
1636717035.2,286047002.8,N
1636717055.1,286047002.4,N
1636717056.0,286047002.4,N
1636717075.8,286047000.1,N
1636717095.7,286047002.4,N
1636717115.5,286047001.6,N
1636717135.3,286047002.8,N
1636717155.2,286047002.5,N
1636717175.9,286047001.9,N
1636717195.7,286047002.0,N
1636717215.6,286047002.1,N
1636717235.4,286047001.9,N
1636717255.3,286047004.3,N
1636717275.1,286047002.5,N
1636717276.0,286047002.5,N
1636717295.8,286046999.9,N
1636717315.7,286046999.8,N
1636717335.5,286047000.9,N
1636717355.3,286047000.4,N
1636717375.2,286047002.6,N
1636717395.0,286047001.8,N
1636717395.9,286047001.8,N
1636717415.8,286047002.1,N
1636717435.6,286047001.6,N
1636717455.4,286047002.3,N
1636717475.3,286047002.3,N
1636717495.1,286047002.2,N
1636717515.8,286047003.5,Y
1636717535.7,286047002.2,P
1636717555.5,286047002.8,P
1636717575.4,286047002.0,P
1636717595.2,286046999.9,N
1636717615.0,286047002.5,N
1636717615.9,286047002.5,N
1636717635.8,286047002.5,N
1636717655.6,286047000.6,N
1636717675.4,286047000.2,N
1636717695.3,286047000.7,N
1636717715.1,286047000.5,N
1636717735.9,286047001.0,N
1636717755.7,286046998.5,N
1636717775.5,286047001.1,N
1636717795.4,286046998.2,N
1636717815.2,286046998.2,N
1636717835.0,286047000.4,N
1636717835.9,286047000.4,N
1636717855.8,286046998.1,N
1636717875.6,286047000.7,N
1636717895.5,286047000.9,N
1636717915.3,286047000.8,N
1636717935.1,286047001.0,N
1636717955.9,286046998.5,N
1636717975.7,286046999.3,N
1636717995.5,286046998.7,N
1636718015.4,286046998.9,N
1636718035.2,286046998.8,N
1636718055.1,286046998.2,N
1636718056.0,286046998.2,N
1636718075.8,286046998.4,N
1636718095.6,286046998.9,N
1636718115.5,286046998.1,N
1636718135.3,286046998.8,N
1636718155.2,286046999.4,N
1636718175.9,286046999.1,N
1636718195.7,286046998.4,N
1636718215.6,286046998.6,N
1636718235.4,286047000.8,N
1636718255.2,286047001.0,N
1636718275.1,286047000.4,N
1636718276.0,286047000.4,N
1636718295.8,286047000.7,N
1636718315.7,286047000.4,N
1636718335.5,286047000.3,N
1636718355.3,286047000.4,N
1636718375.2,286046999.8,N
1636718395.0,286047002.3,N
1636718395.9,286047002.3,N
